Weather History for Dallas Addison, TX

Change the Weather History Date:

Friday, November 16, 2012

  Actual Average Record
Temperature  
Mean Temperature 52 °F -  
Max Temperature 64 °F 63 °F 78 °F (1999)
Min Temperature 41 °F 48 °F 28 °F (1997)
Degree Days  
Heating Degree Days 12    
Growing Degree Days 2 (Base 50)    
Moisture  
Dew Point 32 °F    
Average Humidity 51    
Maximum Humidity 76    
Minimum Humidity 26    
Precipitation  
Precipitation 0.00 in - - ()
Sea Level Pressure  
Sea Level Pressure 30.36 in    
Wind  
Wind Speed 3 mph (East)    
Max Wind Speed 9 mph    
Max Gust Speed -    
Visibility 11 miles    
Events      
Averages and records for this station are not official NWS values.
T = Trace of Precipitation, MM = Missing Value Source: NWS Daily Summary

Daily Weather History Graph

Daily Weather History Graph

Search for Another Location

Airport:

Trip Planner

Search our weather history database for the weather conditions in past years. The results will help you decide how hot, cold, wet, or windy it might be!

Date:

Astronomy

Nov. 16, 2012 Rise Set
Actual Time 6:59 AM CST 5:24 PM CST
Civil Twilight 6:32 AM CST 5:51 PM CST
Nautical Twilight 6:03 AM CST 6:21 PM CST
Astronomical Twilight 5:33 AM CST 6:50 PM CST
Moon 9:52 AM CST (11/16) 8:27 PM CST (11/16)
Length of Visible Light 11h 18m
Length of Day
10h 25m
Waxing Crescent, 12% of the Moon is Illuminated
Nov 16
Waxing Crescent
Nov 20
First Quarter
Nov 28
Full
Dec 6
Last Quarter
Dec 13
New

Hourly Weather History & Observations

Time (CST) Temp. Windchill Dew Point Humidity Pressure Visibility Wind Dir Wind Speed Gust Speed Precip Events Conditions
12:15 AM 46.4 °F 44.3 °F 32.0 °F 57% 30.35 in 10.0 mi East 4.6 mph - N/A   Clear
12:35 AM 46.4 °F 45.2 °F 32.0 °F 57% 30.35 in 10.0 mi East 3.5 mph - N/A   Clear
12:55 AM 46.4 °F 44.3 °F 33.8 °F 62% 30.35 in 10.0 mi East 4.6 mph - N/A   Clear
1:15 AM 46.4 °F 44.3 °F 33.8 °F 62% 30.35 in 10.0 mi ESE 4.6 mph - N/A   Clear
1:35 AM 46.4 °F 45.2 °F 33.8 °F 62% 30.35 in 10.0 mi ESE 3.5 mph - N/A   Clear
1:55 AM 46.4 °F - 33.8 °F 62% 30.35 in 10.0 mi Calm Calm - N/A   Clear
2:15 AM 44.6 °F - 32.0 °F 61% 30.35 in 10.0 mi Calm Calm - N/A   Clear
2:35 AM 42.8 °F - 33.8 °F 70% 30.35 in 10.0 mi Calm Calm - N/A   Clear
2:55 AM 42.8 °F - 33.8 °F 70% 30.35 in 10.0 mi Calm Calm - N/A   Clear
3:15 AM 44.6 °F - 33.8 °F 66% 30.35 in 10.0 mi Calm Calm - N/A   Clear
3:35 AM 42.8 °F - 33.8 °F 70% 30.36 in 10.0 mi Calm Calm - N/A   Clear
3:55 AM 42.8 °F - 33.8 °F 70% 30.35 in 10.0 mi Calm Calm - N/A   Clear
4:15 AM 42.8 °F - 33.8 °F 70% 30.35 in 10.0 mi Calm Calm - N/A   Clear
4:35 AM 42.8 °F - 33.8 °F 70% 30.35 in 10.0 mi Calm Calm - N/A   Clear
4:55 AM 42.8 °F 41.1 °F 33.8 °F 70% 30.35 in 10.0 mi NE 3.5 mph - N/A   Clear
5:47 AM 42.8 °F - 33.8 °F 70% 30.37 in 13.0 mi Calm Calm - N/A   Clear
6:47 AM 41.0 °F 38.0 °F 33.8 °F 76% 30.39 in 13.0 mi NE 4.6 mph - N/A   Partly Cloudy
7:52 AM 44.6 °F 43.1 °F 32.0 °F 61% 30.41 in 13.0 mi ENE 3.5 mph - N/A   Clear
8:47 AM 50.0 °F - 32.0 °F 50% 30.43 in 13.0 mi ENE 5.8 mph - N/A   Clear
9:51 AM 55.4 °F - 30.2 °F 38% 30.43 in 15.0 mi ENE 9.2 mph - N/A   Clear
10:47 AM 57.2 °F - 28.4 °F 33% 30.43 in 13.0 mi East 6.9 mph - N/A   Clear
11:50 AM 60.8 °F - 28.4 °F 29% 30.42 in 13.0 mi SE 3.5 mph - N/A   Clear
12:47 PM 60.8 °F - 28.4 °F 29% 30.38 in 13.0 mi SE 5.8 mph - N/A   Clear
1:50 PM 62.6 °F - 28.4 °F 27% 30.34 in 13.0 mi East 4.6 mph - N/A   Clear
2:47 PM 62.6 °F - 26.6 °F 26% 30.33 in 13.0 mi ESE 6.9 mph - N/A   Clear
2:50 PM 64.4 °F - 32.0 °F 30% 30.34 in 10.0 mi South 6.9 mph - N/A   Clear
3:49 PM 62.6 °F - 28.4 °F 27% 30.33 in 13.0 mi ENE 8.1 mph - N/A   Clear
4:47 PM 62.6 °F - 28.4 °F 27% 30.33 in 13.0 mi East 4.6 mph - N/A   Clear
5:49 PM 60.8 °F - 28.4 °F 29% 30.33 in 13.0 mi East 3.5 mph - N/A   Partly Cloudy
6:47 PM 59.0 °F - 28.4 °F 31% 30.34 in 10.0 mi East 3.5 mph - N/A   Partly Cloudy
7:47 PM 57.2 °F - 28.4 °F 33% 30.35 in 10.0 mi East 5.8 mph - N/A   Clear
8:47 PM 55.4 °F - 30.2 °F 38% 30.37 in 10.0 mi East 4.6 mph - N/A   Clear
9:15 PM 53.6 °F - 30.2 °F 41% 30.37 in 10.0 mi East 3.5 mph - N/A   Clear
9:47 PM 53.6 °F - 32.0 °F 44% 30.38 in 10.0 mi East 3.5 mph - N/A   Clear
10:15 PM 51.8 °F - 32.0 °F 47% 30.37 in 10.0 mi East 3.5 mph - N/A   Clear
10:35 PM 51.8 °F - 32.0 °F 47% 30.37 in 10.0 mi East 3.5 mph - N/A   Clear
10:55 PM 50.0 °F - 32.0 °F 50% 30.37 in 10.0 mi Calm Calm - N/A   Clear
11:15 PM 46.4 °F - 32.0 °F 57% 30.37 in 10.0 mi Calm Calm - N/A   Clear
11:35 PM 46.4 °F - 32.0 °F 57% 30.37 in 10.0 mi Calm Calm - N/A   Clear
11:55 PM 46.4 °F 45.2 °F 32.0 °F 57% 30.36 in 10.0 mi ESE 3.5 mph - N/A   Clear